Location: ????????
(60.5616°N, 46.8254°E)
Time: 15:48:36
(UTC+00:00)

Meteor 2-4 Rocket - Pass Details

Date: 18 February 2020
Orbit: 799 x 908 km, 81.2° (Epoch: 08 April)

Event Time Altitude Azimuth Distance (km) Brightness Sun altitude
Rises 17:00:07 0° 342° (NNW) 3,474 7.4 -23.9°
Reaches altitude 10° 17:02:33 10° 344° (NNW) 2,547 6.6 -24.1°
Maximum altitude 17:08:23 77° 71° (ENE) 925 3.7 -24.8°
Enters shadow 17:09:27 60° 137° (SE) 1,025 3.8 -24.9°
